Flag for U.S.A. Weather past 2 weeks in Springfield, Missouri, U.S.A.

Now
61 °F

Passing clouds.


Feels Like: 61 °F
Forecast: 51 / 72 °F
Wind: 20 mph from Southeast

Location: Springfield Regional Airport

Current Time: Apr 1, 2015 at 10:11:13 AM

Latest Report: Apr 1, 2015 at 9:03 AM


Visibility: 10 mi

Pressure: 29.94 "Hg

Humidity: 65%

Dew point: 49 °F

Location of SpringfieldLocation

Historic Weather in Springfield — Graph

°F

Springfield temperature yesterday

Maximum temperature yesterday: 75 °F (at 2:52 PM)
Minimum temperature yesterday: 47 °F (at 12:52 AM)
Average temperature yesterday: 60 °F

Past Weeks' High & Low Weather Summary

 TemperatureHumidityPressure
High76 °F (Mar 24, 3:52 PM)97% (Mar 19, 10:52 PM)30.23 "Hg (Mar 19, 10:52 PM)
Low32 °F (Mar 30, 6:52 AM)22% (Mar 30, 3:52 PM)29.66 "Hg (Mar 24, 5:52 PM)
Average50 °F68%30.06 "Hg
* Reported Mar 17 8:52 AM — Apr 1 8:52 AM, Springfield, Weather by CustomWeather, © 2015

Note: Actual official high and low records may vary slightly from our data, if they occured in-between our weather recording intervals... More about our weather records

Advertising

Springfield weather history for previous 24 hours

 ConditionsComfort  
Time TempWeatherWind HumidityBarometerVisibility
8:52 AM
Wed, Apr 1
60 °FPartly sunny.20 mph67%29.92 "Hg10 mi
7:52 AM58 °FPassing clouds.17 mph70%29.93 "Hg10 mi
6:52 AM58 °FClear.16 mph67%29.91 "Hg10 mi
5:52 AM58 °FClear.13 mph65%29.90 "Hg10 mi
4:52 AM59 °FClear.14 mph60%29.90 "Hg10 mi
3:52 AM58 °FClear.12 mph62%29.92 "Hg10 mi
2:52 AM55 °FClear.8 mph53%29.93 "Hg10 mi
1:52 AM58 °FClear.9 mph41%29.91 "Hg10 mi
12:52 AM55 °FClear.6 mph49%29.90 "Hg10 mi
11:52 PM
Tue, Mar 31
60 °FClear.7 mph41%29.91 "Hg10 mi
10:52 PM55 °FClear.7 mph64%29.93 "Hg10 mi
9:52 PM57 °FClear.No wind67%29.93 "Hg10 mi
8:52 PM59 °FClear.No wind64%29.92 "Hg10 mi
7:52 PM68 °FSunny.6 mph44%29.89 "Hg10 mi
6:52 PM72 °FSunny.6 mph53%29.88 "Hg10 mi
5:52 PM75 °FPassing clouds.6 mph45%29.88 "Hg10 mi
4:52 PM75 °FSunny.3 mph45%29.89 "Hg10 mi
3:52 PM73 °FPartly sunny.6 mph51%29.90 "Hg10 mi
2:52 PM75 °FMostly cloudy.5 mph54%29.93 "Hg10 mi
1:52 PM73 °FPartly sunny.6 mph55%29.94 "Hg10 mi
12:52 PM71 °FScattered clouds.9 mph66%29.97 "Hg10 mi
11:52 AM69 °FCloudy.10 mph73%29.98 "Hg9 mi
10:52 AM66 °FLow clouds.10 mph84%29.98 "Hg6 mi
Weather by CustomWeather, © 2015

See weather overviewHow to use our weather pages